Hourly Data Report for July 03, 2021

WINNIPEG THE FORKS
MANITOBA
Current Station Operator: ECCC - MSC

49°53'18.008" N
97°07'46.007" W
230.00 m
5023262
71579
XWN

Download Data

Hourly Data (July 2021)
Hourly Data Report for July 3, 2021
TIME
LST
Temp Definition
°C
Dew Point Definition
°C
Rel Hum Definition
%
Precip. Amount Definition
mm

Wind Dir Definition
10's deg

Wind Spd Definition
km/h
Visibility Definition
km
Stn Press Definition
kPa
Hmdx Definition


Wind Chill Definition


Weather Definition


00:00 27.9 15.7 48 0.0 20 7   98.60 32   LegendNANA
01:00 26.7 16.4 53 0.0 20 9   98.57 32   LegendNANA
02:00 25.0 16.7 60 0.0 20 6   98.54 30   LegendNANA
03:00 24.5 16.5 61 0.0 20 4   98.46 29   LegendNANA
04:00 23.9 16.3 62 0.0 20 9   98.45 29   LegendNANA
05:00 23.3 16.4 65 0.0 20 7   98.45 28   LegendNANA
06:00 24.1 16.5 62 0.0 20 6   98.42 29   LegendNANA
07:00 25.2 16.9 60 0.0 19 4   98.40 30   LegendNANA
08:00 26.3 16.5 55 0.0 20 5   98.38 31   LegendNANA
09:00 27.6 16.0 49 0.0 20 9   98.36 32   LegendNANA
10:00 29.6 15.5 43 0.0 21 11   98.32 34   LegendNANA
11:00 31.2 14.5 36 0.0 21 13   98.25 35   LegendNANA
12:00 32.3 13.7 32 0.0 20 15   98.15 35   LegendNANA
13:00 32.9 11.6 27 0.0 20 10   98.07 35   LegendNANA
14:00 33.2 11.3 26 0.0 20 8   98.02 35   LegendNANA
15:00 34.2 11.5 25 0.0 20 8   97.97 36   LegendNANA
16:00 34.1 11.7 26 0.0 20 12   97.92 36   LegendNANA
17:00 33.8 12.5 28 0.0 19 7   97.85 36   LegendNANA
18:00 32.1 13.3 32 0.0 19 8   97.82 35   LegendNANA
19:00 30.9 13.3 34 0.0 19 5   97.80 34   LegendNANA
20:00 26.9 18.8 61 0.0 22 9   97.85 34   LegendNANA
21:00 23.5 20.6 84 0.0 20 13   97.92 32   LegendNANA
22:00 22.6 19.2 81 0.0 19 4   97.81 30   LegendNANA
23:00 22.8 18.9 79 0.0 25 2   97.76 29   LegendNANA

Notes on Data Quality.

Legend

  • E = Estimated
  • M = Missing
  • NA = Not Available*
  • [empty] = Indicates an unobserved value
Date modified: